Location: Castiglione Fibocchi
(43.5333°N, 11.7667°E)
Time: 14:29:33
(UTC+00:00)

COBE Rocket - Pass Details

Date: 15 August 2020
Orbit: 681 x 781 km, 97.1° (Epoch: 24 September)

Event Time Altitude Azimuth Distance (km) Brightness Sun altitude
Exits shadow 02:08:30 35° 274° (W) 1,098 4.5 -20.5°
Drops below altitude 10° 02:12:26 10° 331° (NNW) 2,134 6.5 -20.0°
Sets 02:14:52 0° 340° (NNW) 3,059 7.4 -19.7°
